Lapse_Rate
6.1 6.2 6.8 7.6 7.4 7.3 7.4 7.3 7.1 7.6 7.6 6.8 7.7 8.1 8.4 8.2 7.9 8.1 8.0 7.6 7.5 7.5 7.6 7.6 7.5 7.2 7.2 7.1 6.6 5.4 5.1 5.2 6.1 5.3 5.6 5.7 4.8 4.7 4.7 4.6 4.6 4.6 4.6 4.6
6.0 6.3 6.8 7.3 7.1 6.7 6.8 6.5 7.0 7.7 7.8 6.8 7.3 7.6 8.1 8.2 8.1 8.2 8.1 7.8 7.4 7.5 7.4 7.4 7.5 7.4 7.3 7.3 7.0 5.3 4.9 5.5 5.4 5.4 5.5 5.3 5.6 4.7 5.4 4.2 4.0 4.4 4.4 4.7
6.6 6.6 6.6 7.1 6.8 6.3 6.7 6.6 7.1 7.4 7.8 7.2 7.1 7.2 8.0 8.2 8.3 8.2 8.5 8.1 7.5 7.5 7.6 7.5 7.5 7.3 7.3 7.3 7.1 6.9 6.5 6.9 6.1 5.6 5.6 5.4 5.4 5.0 4.8 4.8 4.2 4.5 4.3 4.6
6.0 6.5 6.4 6.7 6.6 6.6 6.7 7.5 7.6 7.3 6.7 6.7 7.0 5.8 7.7 7.8 8.1 8.2 8.5 8.4 8.1 7.5 7.7 7.7 7.5 7.3 7.3 7.4 7.3 7.1 6.9 6.6 6.2 5.6 5.5 5.6 5.0 5.2 5.2 5.2 4.8 4.6 4.6 4.8
5.8 6.7 6.1 6.5 7.8 6.7 7.1 7.7 7.4 7.2 6.6 6.2 6.5 6.3 6.9 7.4 7.9 8.2 8.2 8.5 8.3 7.9 7.8 7.8 7.7 7.6 7.5 7.4 7.4 7.4 7.2 7.1 6.7 6.2 6.1 5.4 5.2 5.3 5.1 5.1 5.0 4.9 4.7 4.7
6.4 6.6 6.4 6.7 7.1 6.9 7.2 7.1 6.8 7.0 6.8 5.2 7.0 6.8 6.7 7.4 7.9 8.1 8.2 8.5 8.5 8.3 8.1 8.0 8.1 8.1 7.9 7.6 7.5 7.5 7.4 7.3 7.3 7.2 7.0 6.9 6.5 6.2 5.5 5.3 5.3 5.2 4.9 5.0
6.0 6.3 6.4 6.6 6.6 6.9 6.7 6.6 6.5 6.4 5.5 5.0 7.3 7.0 6.9 7.4 7.8 8.0 8.1 8.4 8.3 8.0 8.2 8.1 8.2 8.2 8.1 7.9 7.7 7.6 7.5 7.5 7.4 7.4 7.3 7.2 7.1 7.0 7.0 6.9 6.7 6.7 6.7 6.7
6.0 6.4 6.3 6.6 6.8 6.8 6.6 7.0 6.9 5.9 5.4 6.2 6.8 6.4 7.2 7.7 7.4 7.9 8.1 8.3 8.4 8.2 8.0 8.0 8.1 8.0 8.0 8.1 8.0 7.9 7.7 7.6 7.5 7.4 7.3 7.2 7.2 7.2 7.2 7.1 7.1 6.9 6.9 6.8
6.6 6.6 7.2 7.2 7.7 7.3 7.0 6.7 7.3 7.3 6.3 5.7 7.0 7.0 7.3 7.6 7.5 7.7 8.3 8.2 8.5 8.5 8.4 8.2 8.1 8.1 8.1 8.0 8.1 8.1 7.9 7.8 7.7 7.6 7.3 7.5 7.3 7.4 7.3 7.2 7.0 7.2 7.1 6.9
7.1 7.0 7.3 7.3 7.2 7.0 7.1 7.7 7.4 7.0 5.8 5.6 5.9 6.3 7.4 7.9 7.8 8.0 8.2 8.4 8.6 8.7 8.6 8.4 8.1 8.1 8.0 7.9 7.9 7.9 8.2 8.1 8.0 7.8 7.8 7.8 7.7 7.7 7.5 7.3 7.4 7.2 7.0 6.7
6.5 6.6 6.9 7.2 7.0 7.2 7.2 7.1 7.1 7.0 7.0 5.6 5.4 6.2 7.3 8.2 7.9 8.0 8.2 8.4 8.5 8.7 8.7 8.5 8.3 8.1 8.1 8.0 8.0 7.8 7.9 8.0 8.2 8.1 7.9 8.0 8.0 7.8 7.7 7.7 7.6 7.4 7.4 7.2
6.1 5.8 5.9 6.2 7.0 7.3 7.1 7.2 7.4 7.4 6.8 6.7 6.6 6.4 7.6 8.4 8.4 8.3 8.1 8.2 8.3 8.4 8.6 8.6 8.5 8.4 8.3 8.2 8.0 7.9 7.9 8.0 8.0 7.7 8.0 7.9 7.8 7.6 7.4 7.6 7.4 7.2 7.3 6.8
5.9 5.5 5.5 6.2 6.6 6.7 6.7 6.8 7.0 7.0 6.9 6.6 6.0 6.7 7.5 8.0 8.7 8.8 8.8 8.7 8.6 8.4 8.4 8.6 8.6 8.6 8.5 8.3 8.2 8.2 8.1 8.1 8.1 7.9 7.9 7.8 7.8 7.5 7.5 7.4 7.2 7.2 7.1 6.8
6.1 5.8 5.7 5.5 5.6 5.8 5.9 6.2 6.4 7.2 6.8 6.6 6.7 7.2 7.5 8.0 8.1 8.8 8.6 8.8 8.7 8.5 8.5 8.5 8.6 8.7 8.7 8.6 8.4 8.4 8.2 8.1 8.1 8.0 7.9 8.0 7.9 7.9 7.8 7.5 6.8 7.2 7.1 6.6
6.3 6.1 6.0 5.7 6.0 6.2 6.0 6.2 6.5 6.7 6.5 6.5 7.2 7.5 7.9 8.1 8.2 8.3 8.6 8.4 8.4 8.5 8.4 8.5 8.5 8.7 8.8 8.5 8.5 8.6 8.3 8.2 8.1 8.0 8.0 8.0 8.1 7.9 7.8 7.6 7.6 7.3 7.2 6.5
6.7 6.2 6.2 6.3 6.3 6.3 6.4 6.6 6.9 7.0 6.8 6.4 6.5 6.4 7.3 7.5 7.9 8.3 8.1 8.3 8.3 8.2 8.3 8.3 8.5 8.5 8.4 8.4 8.7 8.7 8.5 8.0 8.2 8.2 8.0 7.8 7.7 7.8 7.8 7.7 7.5 7.4 7.3 7.1
6.4 6.3 6.9 6.5 6.7 6.7 6.4 6.7 7.0 6.7 7.0 6.8 6.4 6.7 7.3 7.4 7.4 7.7 8.1 8.3 8.5 8.4 8.3 8.3 8.3 8.4 8.5 8.5 8.7 8.7 8.8 8.8 8.4 8.3 8.1 8.0 7.6 7.4 7.4 7.5 7.5 7.6 7.5 7.4
6.3 6.3 6.4 6.9 6.7 6.3 7.2 7.5 6.6 6.7 7.0 7.2 6.9 6.8 7.2 7.3 7.8 8.0 8.1 8.2 8.3 8.6 8.5 8.4 8.6 8.8 8.9 9.1 9.0 9.1 8.9 8.9 8.8 8.6 8.4 8.2 7.8 7.6 7.4 7.3 7.2 7.2 7.2 7.3
6.5 6.2 6.2 6.5 6.2 7.2 7.2 7.7 7.8 7.6 7.4 7.3 7.5 7.1 6.8 7.2 7.4 7.3 7.7 8.1 8.3 8.5 8.5 8.3 8.8 8.9 9.0 9.1 9.1 9.0 8.8 8.9 8.9 8.8 8.6 8.1 7.6 7.4 7.2 7.1 7.1 7.1 7.1 7.0
6.2 6.2 6.7 6.5 6.4 6.0 7.2 7.6 7.8 7.7 7.1 7.7 7.4 7.3 6.9 7.2 7.3 7.6 8.0 8.1 8.2 8.3 8.4 8.5 8.5 8.7 8.9 9.0 9.1 9.0 8.7 8.7 8.7 8.4 8.4 7.9 7.5 7.4 7.3 7.1 6.8 6.8 6.7 6.8
6.3 6.2 6.2 6.3 6.3 6.6 7.0 7.3 7.3 7.5 7.7 7.5 7.6 7.1 7.1 6.9 6.5 7.0 8.0 8.0 8.1 8.3 8.4 8.7 8.8 8.7 8.9 8.9 9.1 9.1 8.9 8.6 8.6 8.3 8.0 7.7 7.4 7.1 7.0 6.9 6.8 6.7 6.6 6.7
6.5 6.4 6.2 6.4 6.4 6.2 7.7 7.9 7.7 7.6 7.5 7.0 7.4 7.1 6.5 6.7 6.8 7.0 7.4 7.9 8.1 8.3 8.4 8.5 8.7 8.8 8.9 8.8 8.8 8.9 8.7 8.6 8.5 8.3 7.9 7.6 7.4 7.0 6.8 6.7 6.8 6.8 6.7 6.9
6.5 6.8 7.1 7.1 7.4 7.8 7.7 7.8 7.9 7.8 7.4 7.1 6.9 7.3 6.8 6.9 6.8 6.8 7.2 7.7 8.2 8.2 8.3 8.4 8.5 8.4 8.3 8.3 8.3 8.4 8.3 8.1 7.9 7.8 7.6 7.4 7.1 7.1 7.1 7.0 6.8 6.9 6.3 6.4
6.6 6.7 6.8 6.9 7.1 7.6 7.7 7.7 7.9 8.0 8.1 7.1 6.9 7.0 6.6 6.4 6.3 6.0 6.6 7.2 8.0 8.3 8.3 8.2 8.2 8.0 7.7 7.9 7.8 7.9 7.8 7.6 7.7 7.5 7.3 7.0 6.9 6.7 6.6 6.5 6.1 6.4 6.5 6.3
6.6 6.7 6.7 6.8 7.0 7.2 7.4 7.4 7.7 8.1 7.9 7.5 7.7 7.1 6.9 7.0 6.3 6.3 6.8 7.0 7.2 7.8 7.6 8.0 7.9 7.8 7.7 7.5 7.5 7.7 7.6 7.5 7.5 7.0 6.9 6.7 6.6 6.6 6.5 6.1 6.1 6.1 6.1 6.2
6.5 6.6 6.7 6.9 7.2 7.2 7.3 7.4 7.4 7.7 7.5 7.1 7.2 7.1 7.0 7.0 6.6 6.7 6.6 6.8 7.0 7.1 7.2 7.4 7.3 6.7 7.4 6.6 7.2 7.2 7.2 7.0 7.0 6.6 6.4 6.3 6.3 6.2 6.1 6.0 5.8 5.7 5.7 5.8
Wind_Speed
4 4 12 9 7 5 5 4 4 5 4 3 8 10 17 5 6 9 8 8 8 8 7 8 7 6 7 6 6 6 7 8 10 8 8 7 8 3 3 7 13 13 16 13
3 17 6 8 7 6 4 3 5 8 7 6 8 10 6 5 7 10 10 9 9 6 7 9 8 8 8 9 7 7 8 11 10 7 6 5 6 3 5 2 9 13 14 12
10 3 13 10 7 7 5 6 4 8 6 4 3 8 5 4 4 5 8 7 7 11 11 11 13 12 8 7 8 8 8 9 10 11 6 4 2 4 3 3 3 7 13 8
7 6 5 4 9 8 9 11 8 6 1 4 3 5 6 4 7 6 8 10 11 10 9 9 12 14 14 11 9 8 10 9 9 13 10 12 8 12 7 5 3 3 11 13
8 7 10 5 6 7 8 8 8 5 5 1 3 2 7 2 6 9 10 14 13 12 13 13 14 14 15 11 10 6 9 8 8 11 12 12 13 10 7 3 5 5 6 14
8 3 7 11 6 11 4 3 3 2 3 3 7 6 5 5 8 7 6 10 13 12 12 11 10 12 12 11 10 10 10 10 9 7 7 12 14 10 8 5 5 4 4 3
2 5 2 3 5 3 4 4 1 2 1 5 4 5 8 8 10 10 10 9 12 11 12 11 14 14 14 15 14 12 13 13 11 9 9 10 10 11 12 11 7 6 5 5
8 3 11 5 8 6 6 7 5 6 4 4 1 5 6 8 10 9 8 7 8 11 12 13 15 15 16 17 17 16 16 14 15 14 13 11 13 10 10 10 9 8 8 8
6 5 2 5 8 12 4 5 6 6 1 2 4 6 9 8 8 9 9 6 9 12 13 16 14 16 16 16 18 19 17 16 15 16 14 14 14 14 12 12 9 10 9 7
6 1 4 2 4 3 7 6 4 1 5 5 3 3 5 5 10 8 8 8 9 9 9 10 13 14 14 15 16 16 16 17 15 16 15 13 14 13 11 9 12 11 9 7
2 3 4 3 4 7 3 3 1 4 5 4 2 5 8 9 6 6 8 7 9 9 9 11 12 13 11 11 14 16 16 18 17 17 16 15 14 13 12 12 11 9 8 8
2 3 6 14 7 2 4 7 8 5 5 3 3 6 4 9 7 5 7 8 6 9 10 10 10 9 11 13 14 15 14 15 18 15 15 15 13 14 14 15 15 13 13 11
3 2 2 6 3 3 2 5 6 3 2 6 5 5 2 7 5 7 8 8 8 5 7 7 8 12 13 15 15 16 16 19 15 14 14 15 17 16 17 17 17 15 15 16
5 2 4 3 0 2 6 7 5 7 5 3 5 4 5 6 7 6 7 9 8 8 7 7 8 12 13 14 15 15 17 16 15 15 16 17 18 20 19 17 16 16 16 16
3 3 2 2 7 4 5 9 8 6 7 9 5 8 9 12 11 12 10 7 7 9 8 9 10 11 13 13 14 14 15 15 16 17 18 22 19 17 15 17 17 15 15 16
3 1 3 3 3 5 3 6 8 8 6 7 7 8 9 10 6 7 10 9 9 10 10 9 8 7 9 14 15 15 15 17 16 16 20 17 14 15 17 17 17 17 16 15
4 4 2 2 4 7 4 1 3 7 8 5 8 8 9 8 7 8 13 10 12 11 11 11 12 13 13 15 15 15 17 11 14 16 16 15 13 15 16 16 15 16 17 14
4 2 2 2 3 3 4 0 8 2 4 11 16 15 14 10 10 9 8 9 10 10 10 12 10 10 11 10 12 12 8 11 12 13 13 11 12 13 12 13 14 11 7 10
8 4 3 3 2 6 5 3 1 4 17 12 8 12 14 17 10 9 7 8 10 9 11 11 8 8 7 9 8 8 7 9 9 10 10 8 9 9 8 7 7 5 5 6
5 3 2 2 1 4 5 3 3 5 8 2 3 8 13 15 6 7 11 6 9 9 9 11 6 5 7 7 10 11 9 8 7 6 5 6 7 8 7 8 8 4 6 6
4 1 8 2 3 8 6 4 1 4 6 4 1 4 6 5 5 14 18 13 8 6 8 6 6 7 6 7 7 9 9 7 9 9 9 7 6 7 7 6 7 8 9 10
5 6 3 4 3 8 6 3 3 6 3 3 5 4 4 9 16 12 12 10 8 7 7 6 4 5 5 5 7 8 9 8 9 10 8 8 8 6 7 10 9 10 10 10
2 6 5 8 7 3 1 4 5 3 7 6 3 11 5 7 11 13 12 13 8 7 6 5 5 6 6 6 8 10 5 9 10 10 10 10 10 9 8 9 9 8 9 8
4 4 3 2 2 3 4 4 9 11 14 12 8 6 9 8 13 10 8 9 7 7 6 5 7 7 7 7 10 10 8 9 10 11 10 9 9 9 8 7 5 6 6 7
4 4 4 6 3 8 5 10 12 14 16 9 11 8 8 9 11 11 9 8 5 6 5 8 9 7 9 9 11 9 10 11 11 11 9 9 8 9 10 10 6 5 5 4
0 1 3 3 4 3 9 8 14 13 15 15 13 13 12 13 12 12 11 11 10 10 10 11 12 11 13 12 12 10 8 9 12 10 7 6 7 7 7 8 11 22 18 20
Wind_Direction
202 157 200 180 178 157 151 184 235 253 221 340 261 261 273 207 212 232 221 209 210 201 185 190 184 154 144 146 151 148 155 151 145 152 151 158 171 149 122 144 158 163 157 156
129 229 167 161 177 167 155 240 265 296 284 180 286 275 262 191 231 221 218 216 208 164 168 181 176 164 167 159 157 156 165 166 162 147 163 158 167 137 91 155 151 166 138 156
204 250 163 173 162 168 203 187 226 230 351 255 316 306 280 262 246 211 220 208 195 191 187 179 186 184 167 166 166 171 166 162 152 150 117 79 94 101 96 215 150 220 145 167
228 234 151 149 199 161 230 195 215 246 80 248 106 271 302 282 271 242 224 217 215 191 183 178 177 185 188 185 178 173 166 171 161 157 156 166 185 171 189 206 168 191 156 189
225 177 194 177 209 156 234 162 190 214 207 323 218 281 265 31 282 263 238 224 216 198 184 189 186 179 185 178 178 174 171 176 172 178 169 169 181 194 181 184 220 226 191 183
212 185 163 217 182 182 124 169 159 108 142 239 231 182 262 230 222 257 251 219 215 197 189 190 177 161 174 177 179 172 179 191 185 183 174 176 185 179 182 197 207 225 254 253
248 201 234 197 117 173 125 103 341 343 340 230 216 164 245 262 250 233 257 246 219 202 190 178 168 175 172 180 181 183 184 195 196 190 189 190 196 199 200 207 204 193 219 238
187 252 179 193 178 176 188 158 158 198 195 245 117 226 247 239 263 255 242 244 198 199 196 194 184 180 183 183 182 184 189 196 194 198 202 197 200 204 208 207 213 219 223 223
170 244 225 200 185 163 201 167 193 95 28 62 229 284 305 282 274 287 256 185 210 206 199 199 188 186 183 188 188 186 187 196 200 201 202 206 207 209 213 215 207 211 214 212
197 227 209 252 108 211 168 166 100 15 175 222 254 261 228 301 278 307 302 212 224 214 211 200 199 195 191 188 190 190 189 194 194 198 206 209 210 212 216 215 222 222 226 209
159 123 270 79 161 177 155 205 97 156 148 193 206 255 216 227 261 287 299 290 228 209 203 207 207 205 196 189 186 192 191 189 196 203 202 207 206 208 210 218 222 212 207 201
333 189 231 242 243 226 166 201 177 183 234 225 181 244 233 220 216 234 269 262 231 216 203 208 203 182 188 198 199 199 200 201 204 199 199 204 209 210 210 217 219 215 215 208
345 25 36 341 347 16 199 213 194 136 107 209 214 262 303 277 262 235 244 270 287 265 214 203 180 194 198 202 202 202 202 209 206 201 200 203 205 208 212 218 225 223 224 227
357 87 117 202 238 208 280 306 265 201 195 219 229 236 278 261 233 250 236 243 251 277 244 215 201 201 204 205 205 203 210 210 202 202 208 209 211 211 215 220 220 222 223 226
37 158 117 219 258 289 289 291 289 224 239 239 245 208 231 234 232 230 229 254 260 255 241 223 219 205 204 205 205 208 209 204 202 203 207 217 216 217 216 219 223 226 221 224
11 190 128 242 267 286 328 290 315 287 237 239 238 253 234 253 238 268 257 250 248 241 246 237 227 214 211 206 205 205 209 209 199 206 216 219 213 210 215 220 221 222 221 225
280 177 148 245 334 319 344 135 314 297 296 289 279 263 245 264 242 244 258 245 239 237 231 228 224 225 212 209 204 202 209 194 199 208 214 214 209 210 213 214 215 215 216 218
278 148 31 221 331 222 237 186 144 71 270 331 325 321 287 244 243 217 225 240 251 245 248 245 232 227 220 207 199 207 182 187 196 205 210 201 195 202 200 206 214 216 192 182
195 165 153 175 206 304 303 193 202 91 301 311 307 328 332 322 304 274 218 211 240 258 260 247 234 220 213 197 186 164 160 170 177 197 197 183 173 175 163 171 162 156 134 133
103 108 146 113 117 250 215 263 165 129 268 52 7 326 330 332 318 294 320 328 263 245 255 265 218 209 205 194 158 154 159 156 170 150 121 105 114 121 139 136 137 129 123 112
142 151 228 183 268 281 240 268 233 124 282 311 237 305 329 303 245 287 298 303 283 302 307 265 203 211 201 149 144 142 151 138 116 109 104 105 96 104 107 97 108 115 109 101
163 161 173 171 231 279 191 166 146 222 257 240 287 291 289 294 305 292 304 298 322 335 2 357 66 56 50 86 102 108 99 98 92 93 93 85 89 96 103 107 103 100 105 102
211 181 186 189 209 242 269 296 291 285 246 253 269 311 336 293 300 306 318 331 346 357 36 36 63 70 58 71 109 107 110 112 104 98 97 93 85 82 89 103 104 104 108 115
250 170 206 132 247 267 342 353 10 342 278 262 258 269 310 308 306 303 320 337 347 16 19 41 57 58 24 67 78 99 99 94 96 93 86 81 85 80 68 72 82 98 106 109
208 137 207 267 2 339 90 24 357 354 4 339 337 1 4 353 332 315 326 358 356 37 53 67 60 43 56 42 71 86 109 113 100 95 96 94 90 90 84 65 48 66 51 92
142 183 184 243 8 301 294 11 8 5 0 8 355 353 357 4 348 338 27 18 21 32 48 49 70 65 47 43 46 40 58 92 108 102 94 89 98 94 92 91 75 58 70 80